ACA318 CYYC-CYHZ

Flight info

Callsign ACA318
Flight time N/A
Altitude 33000
Route LOMLO Q961 DAPOP DCT XOVON DCT RIONA DCT YGQ DCT 49N080W/N0462F350 DCT FLEUR DCT OMVEV MINAS1
Aircraft A321/M-SDE3FGHIRWY/LB1

Departure

Time N/A
Airport Calgary International Airport (CYYC)

Arrival

Time 2025-12-30 02:46
Airport Halifax / Stanfield International Airport (CYHZ)
Time Latitude Longitude Altitude Speed Heading
2025-12-30 01:04 48.30266 -78.79662 34365 ft 479 kts 138°
2025-12-30 01:05 48.25404 -78.72835 34406 ft 477 kts 143°
2025-12-30 01:07 48.15624 -78.33127 34358 ft 477 kts 103°
2025-12-30 01:09 48.11686 -77.98849 34337 ft 478 kts 101°
2025-12-30 01:11 48.06559 -77.54956 34269 ft 476 kts 103°
2025-12-30 01:13 48.02479 -77.21038 34285 ft 472 kts 103°
2025-12-30 01:15 47.97731 -76.82574 34263 ft 469 kts 102°
2025-12-30 01:17 47.92882 -76.44402 34233 ft 469 kts 103°
2025-12-30 01:19 47.87913 -76.06303 34200 ft 467 kts 104°
2025-12-30 01:21 47.82842 -75.68394 34173 ft 466 kts 104°
2025-12-30 01:23 47.77653 -75.30759 34171 ft 464 kts 105°
2025-12-30 01:25 47.72363 -74.93300 34158 ft 463 kts 105°
2025-12-30 01:27 47.66956 -74.55923 34165 ft 462 kts 106°
2025-12-30 01:29 47.61439 -74.18723 34179 ft 460 kts 107°
2025-12-30 01:31 47.55134 -73.77227 34172 ft 458 kts 108°
2025-12-30 01:33 47.50135 -73.45096 34163 ft 457 kts 109°
2025-12-30 01:35 47.44343 -73.08617 34159 ft 456 kts 109°
2025-12-30 01:36 47.39170 -72.76804 34191 ft 455 kts 109°
2025-12-30 01:39 47.32436 -72.36112 34200 ft 454 kts 110°
2025-12-30 01:40 47.27092 -72.04571 34198 ft 452 kts 110°
2025-12-30 01:43 47.19416 -71.60156 34204 ft 451 kts 111°
2025-12-30 01:44 47.14876 -71.34411 34221 ft 450 kts 112°
2025-12-30 01:47 47.07727 -70.94626 34228 ft 448 kts 112°
2025-12-30 01:48 47.02161 -70.64241 34218 ft 448 kts 113°
2025-12-30 01:51 46.94932 -70.24844 34212 ft 448 kts 114°
2025-12-30 01:52 46.89292 -69.94243 34196 ft 446 kts 115°
2025-12-30 01:55 46.81382 -69.52054 34220 ft 444 kts 115°
2025-12-30 01:57 46.75569 -69.21743 34176 ft 442 kts 116°
2025-12-30 01:59 46.68006 -68.82938 34255 ft 442 kts 117°
2025-12-30 02:01 46.62042 -68.52870 34265 ft 441 kts 117°
2025-12-30 02:03 46.55115 -68.18529 34264 ft 442 kts 118°
2025-12-30 02:05 46.48075 -67.84249 34252 ft 444 kts 119°
2025-12-30 02:07 46.40911 -67.49896 34256 ft 445 kts 120°
2025-12-30 02:09 46.33604 -67.15547 34284 ft 449 kts 120°
2025-12-30 02:11 46.26133 -66.80967 34319 ft 454 kts 121°
2025-12-30 02:13 46.18470 -66.46124 34306 ft 460 kts 121°
2025-12-30 02:15 46.10623 -66.10915 34299 ft 467 kts 120°
2025-12-30 02:17 46.02054 -65.75665 34301 ft 458 kts 130°
2025-12-30 02:19 45.88303 -65.45622 33839 ft 458 kts 135°
2025-12-30 02:20 45.76081 -65.18870 30732 ft 460 kts 135°
2025-12-30 02:23 45.60008 -64.84234 26466 ft 473 kts 133°
2025-12-30 02:24 45.52707 -64.68590 24709 ft 473 kts 133°
2025-12-30 02:24 45.49028 -64.60759 23823 ft 475 kts 133°
2025-12-30 02:25 45.46261 -64.54863 23195 ft 471 kts 132°
2025-12-30 02:25 45.42730 -64.47364 22310 ft 464 kts 132°
2025-12-30 02:26 45.37773 -64.36905 20980 ft 455 kts 132°
2025-12-30 02:26 45.34265 -64.29518 20071 ft 450 kts 132°
2025-12-30 02:27 45.30782 -64.22200 19211 ft 444 kts 132°
2025-12-30 02:27 45.27385 -64.15071 18360 ft 430 kts 132°
2025-12-30 02:28 45.25731 -64.11602 17970 ft 422 kts 132°
2025-12-30 02:28 45.23361 -64.06263 17223 ft 415 kts 127°
2025-12-30 02:29 45.20660 -63.99152 16293 ft 404 kts 124°
2025-12-30 02:29 45.17098 -63.89436 14996 ft 362 kts 125°
2025-12-30 02:30 45.15198 -63.83279 14171 ft 341 kts 114°
2025-12-30 02:30 45.13960 -63.77427 13373 ft 326 kts 114°
2025-12-30 02:31 45.12669 -63.71409 12434 ft 319 kts 114°
2025-12-30 02:31 45.11367 -63.65423 11571 ft 317 kts 115°
2025-12-30 02:32 45.10727 -63.62487 11227 ft 315 kts 115°
2025-12-30 02:32 45.09332 -63.56619 10270 ft 311 kts 127°
2025-12-30 02:32 45.08670 -63.54984 10014 ft 293 kts 130°
2025-12-30 02:33 45.05391 -63.48051 8103 ft 311 kts 130°
2025-12-30 02:34 45.03205 -63.42840 6765 ft 321 kts 128°
2025-12-30 02:34 45.02059 -63.40132 6290 ft 320 kts 128°
2025-12-30 02:35 44.98911 -63.32631 6071 ft 276 kts 129°
2025-12-30 02:35 44.97945 -63.30304 5703 ft 275 kts 129°
2025-12-30 02:36 44.96190 -63.25447 4820 ft 289 kts 109°
2025-12-30 02:36 44.97158 -63.19783 4051 ft 319 kts 56°
2025-12-30 02:37 45.00913 -63.17054 4054 ft 301 kts
2025-12-30 02:37 45.04713 -63.18364 4044 ft 269 kts 317°
2025-12-30 02:38 45.06247 -63.22710 4043 ft 228 kts 257°
2025-12-30 02:38 45.05950 -63.27470 4048 ft 225 kts 253°
2025-12-30 02:39 45.05804 -63.29599 4045 ft 211 kts 253°
2025-12-30 02:39 45.05458 -63.32915 4041 ft 196 kts 238°
2025-12-30 02:40 45.04161 -63.35280 4032 ft 179 kts 209°
2025-12-30 02:40 45.02202 -63.37232 3769 ft 155 kts 207°
2025-12-30 02:41 45.00543 -63.38880 3387 ft 143 kts 206°
2025-12-30 02:41 44.98138 -63.41265 2793 ft 139 kts 204°
2025-12-30 02:42 44.97348 -63.42049 2605 ft 138 kts 203°
2025-12-30 02:42 44.95870 -63.43516 2258 ft 137 kts 201°
2025-12-30 02:43 44.94324 -63.45049 1876 ft 133 kts 198°
2025-12-30 02:43 44.92812 -63.46546 1501 ft 132 kts 198°
2025-12-30 02:44 44.91539 -63.47804 1179 ft 137 kts 200°
2025-12-30 02:44 44.89887 -63.49454 767 ft 139 kts 202°
2025-12-30 02:45 44.88316 -63.51018 467 ft 137 kts 201°
2025-12-30 02:45 44.87456 -63.51936 459 ft 4 kts 251°
2025-12-30 02:46 44.87452 -63.51952 459 ft 2 kts 251°
2025-12-30 02:46 44.87446 -63.52024 460 ft 9 kts 277°
2025-12-30 02:47 44.87466 -63.52087 458 ft 5 kts 300°
2025-12-30 02:47 44.87572 -63.52061 460 ft 9 kts 37°
2025-12-30 02:48 44.87632 -63.52004 460 ft 12 kts 31°
2025-12-30 02:48 44.87832 -63.51805 459 ft 15 kts 34°
2025-12-30 02:48 44.87905 -63.51731 459 ft 11 kts 35°
2025-12-30 02:49 44.88158 -63.51483 457 ft 18 kts 35°
2025-12-30 02:50 44.88317 -63.51327 458 ft 9 kts 34°
2025-12-30 02:50 44.88441 -63.51206 458 ft 7 kts
2025-12-30 02:51 44.88569 -63.51234 457 ft 9 kts 348°
2025-12-30 02:51 44.88605 -63.51320 457 ft 6 kts 245°
2025-12-30 02:52 44.88614 -63.51354 457 ft 0 kts 308°